No particular awareness of the weather is required.    There are no Weather-warnings


Meteo18 Weather Cam more information Meteo18 Weather Cam


Thunder radar more information blitzortung!


Rain radar more information rain snow radar


Visit our other weather sites:

Template documentation
and downloads

And another site



Weather Underground History page Text

Daily Summary for March 3, 2017 Units:  English    Metric   Both
« Previous Day
Next Day »
Daily Weekly Monthly Yearly Custom
  High: Low: Average:
Temperature: TemperatureC °F 5.2 °F 10.5 °F
Dew Point: DewpointC °F 2.3 °F 5.8 °F
Humidity: Humidity % 59 % 73 %
Wind Speed: WindSpeedKMH mph 0.0 mph 5.1 mph
Wind Gust: WindSpeedGustKMH mph - -
Wind:- - SE
Pressure: PressurehPa in 996.8 in -
Precipitation: 0.0 in    
Historical Graphs
 
 
Tabular Data for March 3, 2017
Time Temperature Dew Point Pressure Wind Wind Speed Wind Gust Humidity Rainfall Rate (Hourly)
TemperatureC °F DewpointC °F PressurehPa in Calm     Humidity % HourlyPrecipMM in
00:02 6.0 °F 2.6 °F 1015.5 in North 1.6 mph 3.2 mph 79 % 0.0 in
00:07 5.9 °F 2.5 °F 1015.5 in Calm   3.2 mph 79 % 0.0 in
00:12 6.0 °F 2.6 °F 1015.5 in NNE 1.6 mph 3.2 mph 79 % 0.0 in
00:17 6.1 °F 2.4 °F 1015.5 in NE 1.6 mph 3.2 mph 77 % 0.0 in
00:22 6.4 °F 2.3 °F 1015.1 in NE 3.2 mph 3.2 mph 75 % 0.0 in
00:27 6.6 °F 2.3 °F 1015.1 in Calm   3.2 mph 74 % 0.0 in
00:32 6.6 °F 2.3 °F 1015.1 in Calm   3.2 mph 74 % 0.0 in
00:42 6.4 °F 2.5 °F 1014.8 in Calm   1.6 mph 76 % 0.0 in
00:47 6.5 °F 2.6 °F 1014.8 in Calm   1.6 mph 76 % 0.0 in
00:52 6.3 °F 2.7 °F 1014.8 in Calm   1.6 mph 78 % 0.0 in
01:02 6.2 °F 2.6 °F 1014.4 in Calm   1.6 mph 78 % 0.0 in
01:07 6.2 °F 2.8 °F 1014.4 in Calm   1.6 mph 79 % 0.0 in
01:12 6.2 °F 2.8 °F 1014.8 in Calm   1.6 mph 79 % 0.0 in
01:17 6.3 °F 2.7 °F 1014.4 in Calm   1.6 mph 78 % 0.0 in
01:22 6.4 °F 2.7 °F 1014.4 in Calm   1.6 mph 77 % 0.0 in
01:27 6.6 °F 2.9 °F 1014.4 in Calm   1.6 mph 77 % 0.0 in
01:32 6.7 °F 2.8 °F 1014.4 in Calm   3.2 mph 76 % 0.0 in
01:37 6.8 °F 3.1 °F 1014.4 in Calm   4.8 mph 77 % 0.0 in
01:42 6.8 °F 3.1 °F 1014.4 in Calm   4.8 mph 77 % 0.0 in
01:47 6.8 °F 3.2 °F 1014.4 in Calm   3.2 mph 78 % 0.0 in
01:52 6.6 °F 3.2 °F 1014.4 in Calm   3.2 mph 79 % 0.0 in
01:57 6.4 °F 3.0 °F 1014.1 in Calm   1.6 mph 79 % 0.0 in
02:02 6.5 °F 2.9 °F 1014.1 in NNE 1.6 mph 1.6 mph 78 % 0.0 in
02:07 6.4 °F 3.2 °F 1013.8 in Calm   3.2 mph 80 % 0.0 in
02:12 6.3 °F 3.1 °F 1013.8 in NNE 1.6 mph 3.2 mph 80 % 0.0 in
02:17 6.1 °F 3.1 °F 1013.8 in Calm   3.2 mph 81 % 0.0 in
02:22 6.0 °F 2.8 °F 1013.4 in Calm   3.2 mph 80 % 0.0 in
02:27 6.2 °F 3.0 °F 1013.4 in Calm   3.2 mph 80 % 0.0 in
02:32 6.2 °F 3.0 °F 1013.4 in Calm   1.6 mph 80 % 0.0 in
02:37 6.3 °F 3.1 °F 1013.1 in Calm   1.6 mph 80 % 0.0 in
02:42 6.1 °F 3.1 °F 1013.1 in Calm   1.6 mph 81 % 0.0 in
02:47 5.8 °F 3.1 °F 1013.1 in Calm   1.6 mph 83 % 0.0 in
02:52 5.7 °F 3.0 °F 1012.8 in Calm   1.6 mph 83 % 0.0 in
02:57 5.8 °F 3.0 °F 1012.8 in Calm   1.6 mph 82 % 0.0 in
03:02 5.8 °F 3.0 °F 1012.8 in Calm   1.6 mph 82 % 0.0 in
03:07 5.7 °F 2.9 °F 1012.8 in Calm   1.6 mph 82 % 0.0 in
03:12 5.8 °F 3.0 °F 1012.8 in Calm   1.6 mph 82 % 0.0 in
03:17 5.9 °F 3.1 °F 1012.8 in Calm   1.6 mph 82 % 0.0 in
03:22 6.1 °F 3.3 °F 1012.8 in Calm   1.6 mph 82 % 0.0 in
03:27 6.1 °F 3.1 °F 1012.4 in Calm   1.6 mph 81 % 0.0 in
03:32 6.0 °F 3.0 °F 1012.4 in Calm   1.6 mph 81 % 0.0 in
03:37 6.1 °F 3.1 °F 1012.1 in Calm   1.6 mph 81 % 0.0 in
03:42 6.0 °F 3.2 °F 1012.1 in Calm   3.2 mph 82 % 0.0 in
03:47 5.9 °F 3.1 °F 1012.1 in Calm   3.2 mph 82 % 0.0 in
03:52 5.9 °F 3.1 °F 1012.1 in Calm   3.2 mph 82 % 0.0 in
03:57 6.0 °F 3.2 °F 1012.1 in Calm   1.6 mph 82 % 0.0 in
04:02 6.0 °F 3.3 °F 1012.1 in Calm   1.6 mph 83 % 0.0 in
04:07 6.0 °F 3.3 °F 1011.7 in Calm   1.6 mph 83 % 0.0 in
04:12 6.1 °F 3.4 °F 1011.7 in Calm   1.6 mph 83 % 0.0 in
04:17 5.9 °F 3.2 °F 1011.7 in Calm   1.6 mph 83 % 0.0 in
04:22 5.9 °F 3.2 °F 1011.7 in Calm   1.6 mph 83 % 0.0 in
04:32 6.1 °F 3.4 °F 1011.4 in Calm   1.6 mph 83 % 0.0 in
04:37 6.1 °F 3.4 °F 1011.4 in Calm   1.6 mph 83 % 0.0 in
04:42 5.8 °F 3.1 °F 1011.4 in Calm   1.6 mph 83 % 0.0 in
04:47 5.6 °F 3.1 °F 1011.4 in Calm   1.6 mph 84 % 0.0 in
04:52 5.6 °F 3.1 °F 1011.1 in Calm     84 % 0.0 in
04:57 5.6 °F 3.3 °F 1011.1 in Calm   1.6 mph 85 % 0.0 in
05:02 5.6 °F 3.3 °F 1011.1 in Calm   1.6 mph 85 % 0.0 in
05:12 5.7 °F 3.2 °F 1010.7 in Calm   1.6 mph 84 % 0.0 in
05:17 5.5 °F 3.2 °F 1010.7 in Calm   1.6 mph 85 % 0.0 in
05:22 5.4 °F 3.1 °F 1010.7 in Calm     85 % 0.0 in
05:32 5.3 °F 3.0 °F 1010.4 in Calm   3.2 mph 85 % 0.0 in
05:37 5.2 °F 3.1 °F 1010.0 in Calm   3.2 mph 86 % 0.0 in
05:42 5.5 °F 3.3 °F 1010.0 in SSE 1.6 mph 4.8 mph 86 % 0.0 in
05:47 5.6 °F 3.4 °F 1010.0 in SE 3.2 mph 6.4 mph 86 % 0.0 in
05:52 5.7 °F 3.5 °F 1010.0 in East 1.6 mph 6.4 mph 86 % 0.0 in
05:57 5.8 °F 3.5 °F 1010.0 in ESE 1.6 mph 6.4 mph 85 % 0.0 in
06:02 5.7 °F 3.4 °F 1010.0 in Calm   4.8 mph 85 % 0.0 in
06:12 5.4 °F 3.2 °F 1009.7 in Calm   3.2 mph 86 % 0.0 in
06:17 5.3 °F 3.1 °F 1009.7 in Calm   1.6 mph 86 % 0.0 in
06:22 5.4 °F 3.4 °F 1009.7 in Calm   1.6 mph 87 % 0.0 in
06:27 5.4 °F 3.4 °F 1009.4 in Calm   1.6 mph 87 % 0.0 in
06:32 5.5 °F 3.5 °F 1009.4 in Calm   1.6 mph 87 % 0.0 in
06:37 5.7 °F 3.7 °F 1009.4 in Calm   6.4 mph 87 % 0.0 in
06:42 5.9 °F 3.7 °F 1009.4 in Calm   6.4 mph 86 % 0.0 in
06:47 6.0 °F 3.7 °F 1009.4 in Calm   6.4 mph 85 % 0.0 in
06:52 5.9 °F 3.6 °F 1009.4 in Calm   1.6 mph 85 % 0.0 in
07:02 6.1 °F 3.8 °F 1008.7 in Calm   3.2 mph 85 % 0.0 in
07:07 6.0 °F 3.7 °F 1008.7 in Calm   3.2 mph 85 % 0.0 in
07:12 5.9 °F 3.6 °F 1008.7 in Calm   3.2 mph 85 % 0.0 in
07:17 5.7 °F 3.5 °F 1008.7 in Calm   3.2 mph 86 % 0.0 in
07:22 5.7 °F 3.7 °F 1008.4 in Calm   1.6 mph 87 % 0.0 in
07:27 5.8 °F 3.6 °F 1008.4 in Calm   1.6 mph 86 % 0.0 in
07:32 5.9 °F 3.7 °F 1008.4 in Calm   4.8 mph 86 % 0.0 in
07:37 5.8 °F 3.5 °F 1008.4 in Calm   4.8 mph 85 % 0.0 in
07:42 5.8 °F 3.6 °F 1008.4 in Calm   4.8 mph 86 % 0.0 in
07:47 6.1 °F 3.8 °F 1008.4 in WNW 1.6 mph 1.6 mph 85 % 0.0 in
07:52 6.2 °F 3.7 °F 1008.4 in Calm   1.6 mph 84 % 0.0 in
07:57 6.2 °F 3.7 °F 1008.0 in Calm   1.6 mph 84 % 0.0 in
08:02 6.3 °F 3.8 °F 1008.0 in Calm   1.6 mph 84 % 0.0 in
08:07 6.3 °F 3.8 °F 1008.0 in Calm   1.6 mph 84 % 0.0 in
08:12 6.4 °F 3.7 °F 1008.0 in Calm   1.6 mph 83 % 0.0 in
08:17 6.4 °F 3.7 °F 1008.0 in Calm   1.6 mph 83 % 0.0 in
08:22 6.4 °F 3.9 °F 1007.7 in Calm   1.6 mph 84 % 0.0 in
08:27 6.4 °F 3.9 °F 1007.7 in Calm   1.6 mph 84 % 0.0 in
08:32 6.7 °F 4.0 °F 1007.7 in Calm   1.6 mph 83 % 0.0 in
08:37 6.9 °F 4.2 °F 1007.7 in Calm   1.6 mph 83 % 0.0 in
08:42 7.2 °F 4.5 °F 1007.3 in Calm   1.6 mph 83 % 0.0 in
08:47 7.4 °F 4.4 °F 1007.3 in Calm   3.2 mph 81 % 0.0 in
08:52 7.7 °F 4.6 °F 1007.3 in Calm   3.2 mph 81 % 0.0 in
08:57 7.8 °F 4.7 °F 1007.3 in Calm   3.2 mph 81 % 0.0 in
09:02 7.9 °F 4.8 °F 1007.3 in Calm   3.2 mph 81 % 0.0 in
09:12 8.2 °F 5.0 °F 1007.0 in Calm   4.8 mph 80 % 0.0 in
09:17 8.3 °F 5.1 °F 1007.0 in Calm   4.8 mph 80 % 0.0 in
09:22 8.4 °F 5.2 °F 1007.0 in Calm   3.2 mph 80 % 0.0 in
09:27 8.6 °F 5.3 °F 1007.0 in Calm   1.6 mph 80 % 0.0 in
09:32 8.7 °F 5.3 °F 1006.7 in Calm   1.6 mph 79 % 0.0 in
09:37 8.8 °F 5.5 °F 1006.7 in SSE 1.6 mph 1.6 mph 80 % 0.0 in
09:42 8.8 °F 5.4 °F 1006.7 in SE 1.6 mph 3.2 mph 79 % 0.0 in
09:47 8.9 °F 5.5 °F 1006.7 in SE 1.6 mph 4.8 mph 79 % 0.0 in
09:52 8.9 °F 5.5 °F 1006.7 in SE 3.2 mph 4.8 mph 79 % 0.0 in
09:57 9.1 °F 5.7 °F 1006.3 in SE 3.2 mph 4.8 mph 79 % 0.0 in
10:02 9.2 °F 5.6 °F 1006.3 in SE 6.4 mph 6.4 mph 78 % 0.0 in
10:12 9.4 °F 5.9 °F 1006.0 in SE 4.8 mph 9.7 mph 79 % 0.0 in
10:17 9.5 °F 5.9 °F 1006.0 in ESE 9.7 mph 9.7 mph 78 % 0.0 in
10:22 9.5 °F 5.7 °F 1006.0 in East 6.4 mph 9.7 mph 77 % 0.0 in
10:27 9.6 °F 5.8 °F 1006.0 in SE 6.4 mph 9.7 mph 77 % 0.0 in
10:32 9.6 °F 6.0 °F 1006.0 in SSE 1.6 mph 11.3 mph 78 % 0.0 in
10:37 9.7 °F 6.0 °F 1006.0 in SE 4.8 mph 14.5 mph 78 % 0.0 in
10:42 9.8 °F 6.0 °F 1005.6 in SE 3.2 mph 14.5 mph 77 % 0.0 in
10:52 10.0 °F 6.2 °F 1005.6 in South 4.8 mph 8.0 mph 77 % 0.0 in
10:57 10.1 °F 6.1 °F 1005.6 in ESE 4.8 mph 9.7 mph 76 % 0.0 in
11:02 10.3 °F 6.3 °F 1005.6 in SE 3.2 mph 9.7 mph 76 % 0.0 in
11:07 10.4 °F 6.2 °F 1005.3 in SE 1.6 mph 9.7 mph 75 % 0.0 in
11:12 10.6 °F 6.5 °F 1005.3 in ESE 1.6 mph 12.9 mph 76 % 0.0 in
11:17 10.8 °F 6.5 °F 1005.0 in ESE 4.8 mph 12.9 mph 75 % 0.0 in
11:22 11.0 °F 6.5 °F 1005.3 in SE 4.8 mph 8.0 mph 74 % 0.0 in
11:27 11.2 °F 6.9 °F 1005.0 in ESE 6.4 mph 6.4 mph 75 % 0.0 in
11:32 11.3 °F 6.6 °F 1005.0 in SE 4.8 mph 6.4 mph 73 % 0.0 in
11:37 11.4 °F 6.7 °F 1004.6 in ESE 4.8 mph 9.7 mph 73 % 0.0 in
11:42 11.6 °F 7.1 °F 1004.6 in SE 4.8 mph 11.3 mph 74 % 0.0 in
11:47 11.7 °F 7.0 °F 1004.6 in SE 3.2 mph 11.3 mph 73 % 0.0 in
11:52 11.9 °F 7.2 °F 1004.6 in ESE 3.2 mph 11.3 mph 73 % 0.0 in
11:57 12.1 °F 7.6 °F 1004.3 in SE 1.6 mph 11.3 mph 74 % 0.0 in
12:02 12.3 °F 7.4 °F 1004.3 in ESE 6.4 mph 9.7 mph 72 % 0.0 in
12:07 12.4 °F 7.9 °F 1004.3 in SE 3.2 mph 12.9 mph 74 % 0.0 in
12:12 12.6 °F 7.9 °F 1004.3 in SE 3.2 mph 12.9 mph 73 % 0.0 in
12:17 12.8 °F 8.3 °F 1003.9 in East 4.8 mph 12.9 mph 74 % 0.0 in
12:22 13.0 °F 8.3 °F 1003.9 in East 6.4 mph 9.7 mph 73 % 0.0 in
12:27 12.9 °F 7.8 °F 1003.9 in ESE 3.2 mph 9.7 mph 71 % 0.0 in
12:32 13.0 °F 8.1 °F 1003.9 in ENE 8.0 mph 12.9 mph 72 % 0.0 in
12:42 13.3 °F 7.7 °F 1003.6 in ESE 6.4 mph 17.7 mph 69 % 0.0 in
12:47 13.4 °F 7.8 °F 1003.3 in East 8.0 mph 17.7 mph 69 % 0.0 in
12:52 13.6 °F 8.4 °F 1003.3 in ESE 8.0 mph 19.3 mph 71 % 0.0 in
12:57 13.6 °F 8.0 °F 1003.3 in SE 9.7 mph 19.3 mph 69 % 0.0 in
13:02 13.7 °F 8.5 °F 1003.3 in SE 12.9 mph 19.3 mph 71 % 0.0 in
13:07 13.8 °F 8.4 °F 1002.9 in SE 11.3 mph 17.7 mph 70 % 0.0 in
13:12 13.9 °F 8.9 °F 1002.9 in SE 8.0 mph 16.1 mph 72 % 0.0 in
13:17 14.1 °F 8.7 °F 1002.9 in SE 4.8 mph 16.1 mph 70 % 0.0 in
13:22 14.3 °F 9.1 °F 1002.9 in SE 8.0 mph 16.1 mph 71 % 0.0 in
13:27 14.4 °F 9.0 °F 1002.6 in SE 6.4 mph 16.1 mph 70 % 0.0 in
13:32 14.6 °F 8.8 °F 1002.6 in SE 9.7 mph 14.5 mph 68 % 0.0 in
13:37 14.9 °F 9.0 °F 1002.6 in SE 4.8 mph 14.5 mph 68 % 0.0 in
13:42 15.1 °F 9.5 °F 1002.3 in SE 4.8 mph 12.9 mph 69 % 0.0 in
13:47 15.4 °F 9.3 °F 1002.3 in SSE 6.4 mph 12.9 mph 67 % 0.0 in
13:52 15.6 °F 8.3 °F 1001.9 in SE 9.7 mph 16.1 mph 62 % 0.0 in
13:57 15.8 °F 8.5 °F 1001.9 in SSE 9.7 mph 24.1 mph 62 % 0.0 in
14:02 15.8 °F 8.5 °F 1001.9 in SE 12.9 mph 24.1 mph 62 % 0.0 in
14:07 15.9 °F 8.4 °F 1001.9 in SE 8.0 mph 27.4 mph 61 % 0.0 in
14:12 16.0 °F 9.0 °F 1001.9 in SE 8.0 mph 27.4 mph 63 % 0.0 in
14:22 16.3 °F 9.0 °F 1001.6 in SE 9.7 mph 17.7 mph 62 % 0.0 in
14:27 16.3 °F 8.5 °F 1001.6 in SSE 12.9 mph 20.9 mph 60 % 0.0 in
14:32 16.3 °F 9.2 °F 1001.2 in SE 8.0 mph 20.9 mph 63 % 0.0 in
14:37 16.3 °F 8.8 °F 1001.2 in SE 19.3 mph 22.5 mph 61 % 0.0 in
14:42 16.3 °F 8.3 °F 1000.9 in SE 8.0 mph 22.5 mph 59 % 0.0 in
14:47 16.4 °F 9.3 °F 1001.2 in ESE 12.9 mph 22.5 mph 63 % 0.0 in
14:52 16.4 °F 8.6 °F 1000.9 in SSE 6.4 mph 19.3 mph 60 % 0.0 in
15:02 16.5 °F 9.2 °F 1000.9 in South 11.3 mph 20.9 mph 62 % 0.0 in
15:07 16.5 °F 9.0 °F 1000.6 in SE 6.4 mph 20.9 mph 61 % 0.0 in
15:12 16.6 °F 8.8 °F 1000.6 in SSE 11.3 mph 24.1 mph 60 % 0.0 in
15:17 16.6 °F 9.3 °F 1000.6 in SSE 4.8 mph 24.1 mph 62 % 0.0 in
15:22 16.7 °F 8.9 °F 1000.6 in ESE 12.9 mph 24.1 mph 60 % 0.0 in
15:27 16.7 °F 9.4 °F 1000.6 in SSE 6.4 mph 20.9 mph 62 % 0.0 in
15:32 16.7 °F 9.4 °F 1000.2 in SE 12.9 mph 20.9 mph 62 % 0.0 in
15:37 16.7 °F 9.6 °F 1000.2 in SSE 14.5 mph 20.9 mph 63 % 0.0 in
15:42 16.8 °F 9.2 °F 1000.2 in South 11.3 mph 24.1 mph 61 % 0.0 in
15:47 16.8 °F 9.7 °F 1000.2 in SE 12.9 mph 24.1 mph 63 % 0.0 in
15:52 16.8 °F 9.5 °F 1000.2 in SSE 6.4 mph 24.1 mph 62 % 0.0 in
16:02 16.6 °F 9.3 °F 999.9 in SE 24.1 mph 24.1 mph 62 % 0.0 in
16:12 16.6 °F 9.5 °F 999.5 in SE 12.9 mph 25.7 mph 63 % 0.0 in
16:17 16.6 °F 9.3 °F 999.5 in SSE 6.4 mph 25.7 mph 62 % 0.0 in
16:22 16.6 °F 9.0 °F 999.5 in SSE 11.3 mph 27.4 mph 61 % 0.0 in
16:32 16.4 °F 8.6 °F 999.5 in SSE 12.9 mph 24.1 mph 60 % 0.0 in
16:37 16.3 °F 8.5 °F 999.5 in SE 11.3 mph 24.1 mph 60 % 0.0 in
16:42 16.2 °F 8.7 °F 999.2 in ESE 8.0 mph 24.1 mph 61 % 0.0 in
16:47 16.1 °F 8.8 °F 999.2 in SW 9.7 mph 24.1 mph 62 % 0.0 in
16:52 16.2 °F 8.4 °F 999.2 in SE 11.3 mph 22.5 mph 60 % 0.0 in
16:57 16.1 °F 8.8 °F 999.2 in SE 11.3 mph 30.6 mph 62 % 0.0 in
17:02 15.9 °F 8.1 °F 999.2 in SSE 6.4 mph 30.6 mph 60 % 0.0 in
17:07 15.9 °F 8.4 °F 998.9 in SSE 6.4 mph 30.6 mph 61 % 0.0 in
17:12 15.8 °F 8.3 °F 998.9 in SE 8.0 mph 25.7 mph 61 % 0.0 in
17:17 15.7 °F 8.4 °F 998.9 in ENE 8.0 mph 25.7 mph 62 % 0.0 in
17:22 15.6 °F 8.3 °F 998.5 in ESE 12.9 mph 25.7 mph 62 % 0.0 in
17:27 15.4 °F 8.4 °F 998.5 in SSE 9.7 mph 20.9 mph 63 % 0.0 in
17:32 15.3 °F 8.3 °F 998.5 in SE 4.8 mph 17.7 mph 63 % 0.0 in
17:42 15.2 °F 8.0 °F 998.5 in East 9.7 mph 22.5 mph 62 % 0.0 in
17:47 15.1 °F 7.9 °F 998.5 in SSE 11.3 mph 22.5 mph 62 % 0.0 in
17:52 15.0 °F 8.0 °F 998.5 in SE 11.3 mph 25.7 mph 63 % 0.0 in
17:57 14.9 °F 7.9 °F 998.2 in SSE 9.7 mph 25.7 mph 63 % 0.0 in
18:02 14.8 °F 7.8 °F 998.2 in SE 8.0 mph 20.9 mph 63 % 0.0 in
18:07 14.6 °F 7.6 °F 998.2 in ESE 16.1 mph 20.9 mph 63 % 0.0 in
18:12 14.6 °F 7.4 °F 997.9 in ESE 14.5 mph 17.7 mph 62 % 0.0 in
18:17 14.6 °F 7.6 °F 997.9 in ESE 6.4 mph 24.1 mph 63 % 0.0 in
18:22 14.4 °F 7.4 °F 997.9 in ESE 11.3 mph 24.1 mph 63 % 0.0 in
18:27 14.3 °F 7.1 °F 997.9 in SSE 11.3 mph 20.9 mph 62 % 0.0 in
18:32 14.3 °F 7.1 °F 997.9 in SSE 11.3 mph 20.9 mph 62 % 0.0 in
18:42 14.0 °F 7.3 °F 997.9 in SE 12.9 mph 22.5 mph 64 % 0.0 in
18:47 14.0 °F 7.3 °F 997.9 in East 12.9 mph 20.9 mph 64 % 0.0 in
18:52 13.9 °F 7.2 °F 997.9 in SE 8.0 mph 19.3 mph 64 % 0.0 in
19:02 13.7 °F 7.5 °F 997.9 in SE 6.4 mph 22.5 mph 66 % 0.0 in
19:07 13.6 °F 7.4 °F 997.9 in SSE 6.4 mph 22.5 mph 66 % 0.0 in
19:12 13.6 °F 7.4 °F 997.9 in SE 16.1 mph 22.5 mph 66 % 0.0 in
19:22 13.4 °F 7.2 °F 998.2 in SSE 4.8 mph 22.5 mph 66 % 0.0 in
19:27 13.3 °F 7.1 °F 998.2 in SSW 8.0 mph 19.3 mph 66 % 0.0 in
19:32 13.4 °F 7.0 °F 998.2 in SSE 6.4 mph 20.9 mph 65 % 0.0 in
19:37 13.3 °F 6.9 °F 998.2 in SSE 4.8 mph 20.9 mph 65 % 0.0 in
19:42 13.3 °F 6.9 °F 997.9 in SSE 8.0 mph 20.9 mph 65 % 0.0 in
19:47 13.2 °F 7.0 °F 997.9 in SE 4.8 mph 20.9 mph 66 % 0.0 in
19:52 12.9 °F 6.7 °F 997.9 in SSE 6.4 mph 20.9 mph 66 % 0.0 in
19:57 13.0 °F 6.8 °F 997.9 in South 11.3 mph 17.7 mph 66 % 0.0 in
20:02 12.9 °F 6.5 °F 997.9 in SSE 9.7 mph 16.1 mph 65 % 0.0 in
20:07 12.9 °F 6.5 °F 997.9 in South 6.4 mph 16.1 mph 65 % 0.0 in
20:12 12.9 °F 6.7 °F 997.9 in SE 12.9 mph 16.1 mph 66 % 0.0 in
20:17 12.8 °F 6.6 °F 997.9 in SSE 16.1 mph 19.3 mph 66 % 0.0 in
20:22 12.9 °F 6.7 °F 997.9 in SSE 17.7 mph 19.3 mph 66 % 0.0 in
20:27 12.9 °F 6.5 °F 997.9 in South 4.8 mph 24.1 mph 65 % 0.0 in
20:32 12.8 °F 6.6 °F 997.9 in SE 12.9 mph 24.1 mph 66 % 0.0 in
20:37 12.7 °F 6.5 °F 997.9 in SE 8.0 mph 19.3 mph 66 % 0.0 in
20:42 12.6 °F 6.4 °F 997.9 in SSE 8.0 mph 17.7 mph 66 % 0.0 in
20:47 12.5 °F 6.5 °F 997.9 in SSE 8.0 mph 14.5 mph 67 % 0.0 in
20:52 12.5 °F 6.5 °F 997.9 in SSE 4.8 mph 17.7 mph 67 % 0.0 in
20:57 12.4 °F 6.4 °F 997.5 in ESE 4.8 mph 17.7 mph 67 % 0.0 in
21:02 12.5 °F 6.5 °F 997.9 in South 4.8 mph 19.3 mph 67 % 0.0 in
21:07 12.5 °F 6.8 °F 997.5 in South 9.7 mph 19.3 mph 68 % 0.0 in
21:12 12.5 °F 6.5 °F 997.5 in SE 6.4 mph 19.3 mph 67 % 0.0 in
21:17 12.4 °F 6.7 °F 997.5 in SE 8.0 mph 20.9 mph 68 % 0.0 in
21:22 12.4 °F 6.7 °F 997.5 in South 8.0 mph 20.9 mph 68 % 0.0 in
21:27 12.4 °F 6.7 °F 997.5 in SE 16.1 mph 24.1 mph 68 % 0.0 in
21:32 12.4 °F 6.7 °F 997.5 in SE 9.7 mph 24.1 mph 68 % 0.0 in
21:37 12.4 °F 6.7 °F 997.5 in SE 4.8 mph 29.0 mph 68 % 0.0 in
21:42 12.4 °F 6.7 °F 997.5 in ESE 11.3 mph 29.0 mph 68 % 0.0 in
21:47 12.5 °F 6.5 °F 997.5 in SE 8.0 mph 29.0 mph 67 % 0.0 in
21:52 12.4 °F 6.7 °F 997.5 in SSW 9.7 mph 27.4 mph 68 % 0.0 in
21:57 12.4 °F 6.7 °F 997.5 in SE 8.0 mph 27.4 mph 68 % 0.0 in
22:02 12.4 °F 6.4 °F 997.5 in South 12.9 mph 24.1 mph 67 % 0.0 in
22:07 12.4 °F 6.4 °F 997.5 in South 11.3 mph 22.5 mph 67 % 0.0 in
22:12 12.4 °F 6.4 °F 997.5 in SE 8.0 mph 27.4 mph 67 % 0.0 in
22:17 12.4 °F 6.4 °F 997.5 in SSE 4.8 mph 27.4 mph 67 % 0.0 in
22:22 12.4 °F 6.4 °F 997.5 in SSE 4.8 mph 27.4 mph 67 % 0.0 in
22:27 12.3 °F 6.3 °F 997.5 in SSE 11.3 mph 25.7 mph 67 % 0.0 in
22:32 12.2 °F 6.3 °F 997.2 in ESE 11.3 mph 19.3 mph 67 % 0.0 in
22:37 12.2 °F 6.3 °F 997.2 in SSE 6.4 mph 17.7 mph 67 % 0.0 in
22:42 12.1 °F 6.4 °F 997.5 in SSE 8.0 mph 19.3 mph 68 % 0.0 in
22:47 12.1 °F 6.4 °F 997.5 in South 11.3 mph 19.3 mph 68 % 0.0 in
22:52 12.1 °F 6.4 °F 997.2 in ESE 8.0 mph 19.3 mph 68 % 0.0 in
22:57 12.2 °F 6.3 °F 997.5 in SSE 6.4 mph 19.3 mph 67 % 0.0 in
23:02 12.2 °F 6.0 °F 997.2 in SSE 6.4 mph 19.3 mph 66 % 0.0 in
23:07 12.1 °F 6.2 °F 997.2 in SE 14.5 mph 20.9 mph 67 % 0.0 in
23:12 12.2 °F 6.3 °F 997.2 in SE 8.0 mph 24.1 mph 67 % 0.0 in
23:17 12.1 °F 5.9 °F 997.2 in ESE 14.5 mph 25.7 mph 66 % 0.0 in
23:22 12.1 °F 5.9 °F 997.2 in SE 12.9 mph 25.7 mph 66 % 0.0 in
23:27 12.2 °F 6.0 °F 996.8 in SE 12.9 mph 22.5 mph 66 % 0.0 in
23:32 12.2 °F 6.0 °F 997.2 in SE 19.3 mph 22.5 mph 66 % 0.0 in
23:37 12.2 °F 6.0 °F 997.2 in SSE 9.7 mph 22.5 mph 66 % 0.0 in
23:42 12.1 °F 5.9 °F 997.2 in SSE 8.0 mph 22.5 mph 66 % 0.0 in
23:47 12.1 °F 5.9 °F 996.8 in SE 6.4 mph 22.5 mph 66 % 0.0 in
23:52 12.1 °F 5.9 °F 996.8 in SSE 16.1 mph 20.9 mph 66 % 0.0 in
Meteo18
Compliments of Weather Underground - 4 mb

Script developed by  Jim McMurry - jmcmurry@mwt.net Adapted for the template by  Wim van der Kuil - Leuven-Template.eu

You find our weather info also at:

European Weather Network

Weather Underground

Equipment we use:

Weather-station
Davis Vue

Weather-program
Meteobridge

Weather-server
Raspberry PI 2 B+

Provider
1 and 1

Davis Vue

Meteobridge

Raspberry PI 2 B+

1 and 1